Regional Weather Roundup
Issued by NWS

Home | Current Version | Previous Version | Text Only | Print | Product List | Glossary On
Versions: 1 2 3 4 5 6 7 8 9 10 11 12 13 14 15 16 17 18 19 20 21 22 23 24 25 26 27 28 29 30 31 32 33 34 35 36 37 38 39 40 41 42 43 44 45 46 47 48 49 50
000
ASUS43 KOAX 170402
RWRNE

WEATHER ROUNDUP FOR NEBRASKA
NATIONAL WEATHER SERVICE OMAHA NE
1100 PM CDT WED AUG 16 2017

NOTES: SATELLITE DATA IS BEING USED TO AUGMENT CLOUD COVER ABOVE
       12000 FEET.
       "FAIR" INDICATES FEW OR NO CLOUDS BELOW 12,000 FEET WITH NO
       SIGNIFICANT WEATHER AND/OR OBSTRUCTIONS TO VISIBILITY.


NEZ001>004-019>022-054>056-170500-
NEBRASKA PANHANDLE

CITY           SKY/WX    TMP DP  RH WIND       PRES   REMARKS
SCOTTSBLUFF    CLEAR     60  53  77 SE3       30.08R
ALLIANCE       CLEAR     56  51  84 S5        30.06S
CHADRON        CLEAR     61  52  72 CALM      30.02R
GORDON         FAIR      55  52  89 CALM      30.03S
KIMBALL        CLEAR     56  51  85 S6        30.15R
SIDNEY         CLEAR     51  48  89 SW6       30.12R
$$

NEZ057>060-069>072-079>082-170500-
SOUTHWEST NEBRASKA

CITY           SKY/WX    TMP DP  RH WIND       PRES   REMARKS
NORTH PLATTE   CLEAR     56  55  97 NW3       30.01R
IMPERIAL       CLEAR     62  54  74 NW3       30.05S
LEXINGTON      CLEAR     60  58  92 W3        29.98R
MCCOOK         CLEAR     63  60  90 NW8       30.00S
OGALLALA       CLEAR     57  55  91 CALM      30.05S
$$

NEZ005>010-023>029-035>040-094-170500-
NORTH CENTRAL NEBRASKA

CITY           SKY/WX    TMP DP  RH WIND       PRES   REMARKS
VALENTINE      CLEAR     57  49  74 W6        29.98S
AINSWORTH      CLEAR     58  56  92 W6        29.99R
BROKEN BOW     CLEAR     64  57  78 NW9       29.96R
O`NEILL        CLEAR     63  61  95 NW10      29.91S
ORD            CLEAR     60  57  89 NW5       29.93R
THEDFORD       CLEAR     58  54  85 W3        30.01S
$$

NEZ041-046>049-061>064-073>077-083>087-170500-
SOUTH CENTRAL NEBRASKA

CITY           SKY/WX    TMP DP  RH WIND       PRES   REMARKS
GRAND ISLAND   CLEAR     62  61  96 W6        29.93S
AURORA         CLEAR     62  62  99 NW3       29.92S
HASTINGS       CLEAR     64  60  87 NW5       29.95R
HEBRON         CLEAR     67  64  91 W3        29.93R
HOLDREGE       CLEAR     60  58  93 NW5       29.97R
KEARNEY        CLEAR     64  60  87 W3        29.96R
YORK           MOCLDY    63  63 100 NW6       29.93R
$$

NEZ011>018-030>034-042>045-170500-
NORTHEAST NEBRASKA

CITY           SKY/WX    TMP DP  RH WIND       PRES   REMARKS
NORFOLK        CLOUDY    64  60  87 W9        29.86S
ALBION         PTCLDY    64  61  89 NW7       29.90S
BLAIR          RAIN      67  64  89 W7        29.84S
COLUMBUS       PTCLDY    64  61  90 W6        29.88F
FREMONT        CLEAR     65  62  90 W9        29.86S
TEKAMAH        PTCLDY    67  62  84 W9G17     29.82R
WAYNE          CLOUDY    65  63  91 W12       29.82F
$$

NEZ050>053-065>068-078-088>093-170500-
SOUTHEAST NEBRASKA

CITY           SKY/WX    TMP DP  RH WIND       PRES   REMARKS
LINCOLN        PTCLDY    69  62  78 NW8       29.89R
OMAHA EPPLEY   MOCLDY    71  64  78 NW10      29.84R
BEATRICE       CLEAR     69  65  88 NW5       29.88S
FALLS CITY     CLOUDY    72  65  78 W8        29.83R
NEBRASKA CITY  CLOUDY    72  69  90 NW14      29.86R
PLATTSMOUTH    PTCLDY    69  63  81 W12G17    29.85S
$$

NEZ044-045-051>053-067-170500-
OMAHA AREA

CITY           SKY/WX    TMP DP  RH WIND       PRES   REMARKS
OMAHA EPPLEY   MOCLDY    71  64  78 NW10      29.84R
BLAIR          RAIN      67  64  89 W7        29.84S
FREMONT        CLEAR     65  62  90 W9        29.86S
MILLARD        MOCLDY    71  64  80 W8        29.85S
OFFUTT AFB     CLEAR     70  64  79 W10       29.84R
PLATTSMOUTH    PTCLDY    69  63  81 W12G17    29.85S
WAHOO          FAIR      66  62  87 W9        29.87R
$$



USA.gov is the U.S. government's official web portal to all federal, state and local government web resources and services.